Regional Weather Roundup
Issued by NWS Wakefield, VA

Home | Current Version | Previous Version | Graphics & Text | Print | Product List | Glossary On
Versions: 1 2 3 4 5 6 7 8 9 10 11 12 13 14 15 16 17 18 19 20 21 22 23 24 25 26 27 28 29 30 31 32 33 34 35 36 37 38 39 40 41 42 43 44 45 46 47 48 49 50
913
ASUS41 KAKQ 051615
RWRAKQ

REGIONAL WEATHER ROUNDUP
NATIONAL WEATHER SERVICE WAKEFIELD VA
1100 AM EST MON DEC 05 2016

Note: "fair" indicates few or no clouds below 12,000 feet with no
significant weather and/or obstructions to visibility. * = Denotes
station may not report precipitation (e.g., rain,snow,etc.),
thunder or fog.

VAZ042-051-052>054-056-051700-
NORTHERN VIRGINIA

CITY           SKY/WX    TMP DP  RH WIND       PRES   REMARKS
WASH NATIONAL  MOSUNNY   47  42  83 VRB5      30.04S
DULLES         MOSUNNY   47  41  80 CALM      30.03S
FORT BELVOIR   MOSUNNY   46  39  76 CALM      30.03S
QUANTICO       CLOUDY    43  41  93 CALM      30.05S
FREDERICKSBRG* CLOUDY    43  43 100 CALM      30.04R
STAFFORD*      CLOUDY    42  41  99 CALM      30.08R
WARRENTON      CLOUDY    43  37  80 CALM      30.03S
CULPEPER*      CLOUDY    43  41  94 CALM      30.04F
MANASSAS*      CLOUDY    43  43 100 CALM      30.04S
LEESBURG*      MOSUNNY   45  45 100 MISG      30.03F
WINCHESTER     MOSUNNY   46  39  76 CALM      30.00F
FRONT ROYAL*   FAIR      50  41  71 CALM      30.00S
LURAY*         FAIR      50  45  81 SE3       30.01S
$$

VAZ048-049-060>072-079>083-051700-
CENTRAL AND SOUTH CENTRAL VIRGINIA

CITY           SKY/WX    TMP DP  RH WIND       PRES   REMARKS
RICHMOND       PTSUNNY   46  42  86 NW9       30.03S
CHESTERFIELD*  CLOUDY    45  28  53 NW5       30.05R
PETERSBURG*    CLOUDY    44  41  91 W6        30.03F
HANOVER        CLOUDY    43  40  89 NW5       30.05S
TAPPAHANNOCK*  CLOUDY    43  43 100 NW5       30.05R
QUINTON*       NOT AVBL
CHARLOTTSVILLE CLOUDY    45  41  86 SW5       30.03R FOG
GORDONSVILLE*  PTSUNNY   43  42  95 CALM      30.03R
ORANGE*          N/A     43  43 100 CALM      30.05R
LOUISA*        CLOUDY    45  45 100 NW3       30.02R
BUMPASS*       CLOUDY    41  41  99 NW3       30.04R
FARMVILLE*     CLOUDY    44  44  99 CALM      30.03S
CREWE*         NOT AVBL
FORT PICKETT*  CLOUDY   N/A N/A N/A CALM      30.02F
CHASE CITY*    CLOUDY    43  41  95 NW3       30.04S
CLARKSVILLE*   CLOUDY    43  43 100 NW5       30.04S
SOUTH HILL*    CLOUDY    46  44  93 NW3       30.09S
LAWRENCEVILLE* CLOUDY    46  44  91 CALM      30.03S
EMPORIA*       CLOUDY    45  43  93 W6        30.05S
$$

VAZ088>098-051700-
SOUTHEAST VIRGINIA

CITY           SKY/WX    TMP DP  RH WIND       PRES   REMARKS
NORFOLK        CLOUDY    49  46  90 N10       30.01R
VIRGINIA BEACH CLOUDY    52  48  86 NW14      29.99R
NORFOLK NAVAL  CLOUDY    50  47  89 N9        30.02R
WEST POINT*    CLOUDY    45  44  98 W5        30.05R
SALUDA*        NOT AVBL
NEWPORT NEWS   CLOUDY    47  46  97 NW6       30.02R
LANGLEY AFB    CLOUDY    48  48  99 NW5       30.01R
FORT EUSTIS    CLOUDY    50  45  84 NW9       30.00R
WILLIAMSBURG*  PTSUNNY   48  48 100 CALM      30.03S
HR EXEC AP*    CLOUDY    48  46  93 NW5       30.00R
FRANKLIN*      CLOUDY    47  44  91 W5        30.03S
US460-WAKEFLD  CLOUDY    47  44  90 W6        30.03S
$$

VAZ020-022-025-037-045-051700-
WEST CENTRAL AND SOUTHWEST VIRGINIA

CITY           SKY/WX    TMP DP  RH WIND       PRES   REMARKS
STAUNTON*      SUNNY     48  41  78 CALM      30.03S
WAYNESBORO*    FAIR      49  37  61 NW7       30.01R
HOT SPRINGS VA PTSUNNY   41  37  87 W10G21    29.98R
LYNCHBURG      CLOUDY    41  41 100 S3        30.04S FOG
DANVILLE       CLOUDY    44  44 100 CALM      30.04S
SOUTH BOSTON*  CLOUDY    43  42  95 CALM      30.05S
MARTINSVILLE   FOG       43  42  97 CALM      30.07R VSB 3/4
ROANOKE        MOSUNNY   53  40  61 NW16      30.04F
BLACKSBURG     PTSUNNY   48  38  68 W8        30.07S
DUBLIN*        PTSUNNY   50  39  65 NW10      30.07R
MARION*        CLOUDY    47  38  72 NW7       30.08S
HILLSVILLE*    MOSUNNY   46  38  73 NW14G20   30.02R
RICHLANDS*     CLOUDY    44  39  82 CALM      30.07R
WISE*          CLOUDY    43  43 100 CALM      30.08S
ABINGDON*      CLOUDY    49  43  80 E5        30.07S
$$

MDZ021>025-VAZ099-100-051700-
SOUTHERN MARYLAND AND THE DELMARVA PENINSULA

CITY           SKY/WX    TMP DP  RH WIND       PRES   REMARKS
PATUXENT RIVER MOSUNNY   47  42  83 NW12      30.03R
BAY BRIDGE APT PTSUNNY   46  41  81 W6        30.03S
LEONARDTOWN    MOSUNNY   45  41  87 W7        30.04S
DOVER          PTSUNNY   46  46 100 W6        30.01F
GEORGETOWN     CLOUDY    47  43  86 NW8       30.02S
EASTON         PTSUNNY   46  41  81 NW8       30.06F
CAMBRIDGE      NOT AVBL
SALISBURY      CLOUDY    47  44  90 NW8       30.01S
OCEAN CITY     CLOUDY    46  45  96 NW6       30.01S
WALLOPS ISLAND FOG       45  45 100 NW9       30.01F VSB 1/2
ACCOMACK*      CLOUDY    47  46  94 N8        30.01S
$$

NCZ012>017-030>032-051700-
NORTH CENTRAL AND EASTERN NORTH CAROLINA

CITY           SKY/WX    TMP DP  RH WIND       PRES   REMARKS
ROANOKE RAPIDS CLOUDY    48  45  87 NW5       30.03F
RALEIGH        MOSUNNY   50  44  80 NE3       30.04S
ELIZABETH CITY PTSUNNY   54  50  86 NW6       30.00R
AHOSKIE*       CLOUDY    47  46  94 N3        30.03R
EDENTON*       PTSUNNY   53  49  87 CALM      30.01S
CURRITUCK*     PTSUNNY   52  51  97 W3        29.99S
KILL DEVIL HLS CLOUDY    52  52 100 N6        29.96S
MANTEO         CLOUDY    52  51  99 N14       29.98S
CAPE HATTERAS  CLOUDY    54  52  93 VRB7      29.97R
TARBORO*       NOT AVBL
GOLDSBORO      MOSUNNY   52  50  94 N5        30.01S
WASHINGTON     MOSUNNY   52  47  84 N5        30.01F
GREENVILLE     PTSUNNY   50  48  93 N6        30.03F
NEW BERN       CLOUDY    50  47  89 N8        30.02R
WILMINGTON     CLOUDY    51  49  92 N6        30.00F
$$

VAZ048-051700-
ELSEWHERE

CITY           SKY/WX    TMP DP  RH WIND       PRES   REMARKS
HARRISBURG PA  PTSUNNY   44  41  89 W3        30.01S
BALTIMORE      MOSUNNY   49  43  80 VRB7      30.02S
ANNAPOLIS      MOSUNNY   47  41  80 NW7       30.03S
ANDREWS AFB    MOSUNNY   46  41  82 NW5       30.01F
PHILADELPHIA   CLOUDY    44  40  85 W8        30.02F
HENDERSON NC   PTSUNNY   45  42  87 CALM      30.04S
GREENSBORO     MOSUNNY   52  46  80 VRB3      30.04R
ROCKY MOUNT    MOSUNNY   50  46  86 VRB6      30.03S
$$

VAZ100-051700-
MARINE

STATION/POSITION TIME  TEMP    WIND        PRES    WAVE   SWELL
                       AIR SEA DIR/SP/G            HT/PER HT/PER
                 (UTC) (F)     (DEG/KT/KT) (MB)    (FT/S) (FT/S)
BRANDYWINE LGT   1548   44     310/ 10/ 12   N/A
CAPE MAY NJ      1548   45 48  300/ 11/ 13 1016.2S
LEWES DE         1548   45 49  320/  9/ 11 1016.4F
OCEAN-CITY-INLET 1536   45 50  350/  8/ 10 1016.4F
WACHAPREAGUE VA  1548   47 48  340/  4/  6 1015.9S
THOMAS POINT MD  1600   44 49  290/  8/  9   N/A
GOOSES REEF MD   1600   44 50  350/  6/  8 1017.5    1
COVE POINT MD    1548   44     350/  5/ 10 1017.4R
SOLOMONS ISLAND  1536   44 51  310/  5/  8   N/A
BISHOPS HEAD MD  1548   44 45  300/  8/ 10 1016.9S
PINEY POINT MD   1548          320/ 10/ 11   N/A
POTOMAC MD       1600   44 50  340/ 10/ 12 1015.9
CAMBRIDGE MD     1548   44 47  310/  9/ 13 1016.1R
LEWISETTA VA     1548   44 48  340/  6/  9 1016.6R
RAPPAHANNOCK LGT 1548          340/ 13/ 14 1016.8R
STINGRAY PT      1600   44     340/  6/  8 1017.0    0
YORK RVR RNG VA  1548   45     350/ 10/ 12 1015.9R
YORKTOWN VA      1548   45 52  300/ 12/ 14 1016.1R
JAMESTOWN VA     1600   45 52  290/  8/ 10   N/A     0
DOMINION TERM VA 1548   46     350/  9/ 11 1016.3R
KIPTOPEKE VA     1548      52  340/ 13/ 15   N/A
CHES BAY BRIDGE  1548   48 54  330/ 12/ 14 1016.0R
CAPE HENRY VA    1548   49     320/ 13/ 15   N/A
WILLOUBY STN VA  1548   47     360/  6/  8 1017.0R
S CRANEY ISL VA  1548   48     310/  8/ 11 1015.9R
CAPE HENRY BUOY  1542      56                N/A     3/ 9
1ST LANDING BUOY 1600   49 54              1016.1    2/ 3
CAPE CHARLES BUO 1556      55                N/A     2/ 8
OFFSHORE WE BUOY 1551      56                N/A     3/ 8
64NM E OF VA BCH 1550   56 60   10/ 19/ 23 1013.0F   5/ 5   2/ 8
DUCK PIER NC     1548   52 54  350/ 13/ 15 1014.4R
44100 DUCK FRF   1535      56                N/A     4/ 4
OREGON INLET NC  1542   53 56  350/ 11/ 16 1014.5R
HATTERAS NC      1548   53 60  330/ 15/ 17 1014.5R
DIAMOND SHLS NC  1550   58 73  340/ 17/ 21 1013.8R   7/ 8   5/ 8
CAPE LOOKOUT NC  1500   53     340/ 13/ 15 1014.8R
$$




USA.gov is the U.S. government's official web portal to all federal, state and local government web resources and services.